TUI106 LFSB-LFKJ

Flight info

Callsign TUI106
Flight time 0h 57m
Altitude 35000
Route OLBEN Z50 GERSA DCT SOSON DCT ODINA DCT EVANO DCT KEMMI DCT IXITO DCT UNITA DCT ERTEV/N0418F230 DCT TORTU
Aircraft B738/M-SDE2E3FGHIRWXY/LB1

Departure

Time 2026-04-08 14:13
Airport EuroAirport Basel–Mulhouse–Freiburg (LFSB)

Arrival

Time 2026-04-08 15:10
Airport Ajaccio Napoléon Bonaparte airport (LFKJ)
Time Latitude Longitude Altitude Speed Heading
2026-04-08 13:32 47.59795 7.52846 893 ft 0 kts 65°
2026-04-08 13:33 47.59794 7.52844 893 ft 0 kts 65°
2026-04-08 13:34 47.59795 7.52846 893 ft 0 kts 65°
2026-04-08 13:53 47.59794 7.52845 893 ft 2 kts 65°
2026-04-08 13:53 47.59783 7.52813 893 ft 4 kts 52°
2026-04-08 13:54 47.59764 7.52788 892 ft 4 kts 19°
2026-04-08 13:54 47.59746 7.52786 892 ft 0 kts 334°
2026-04-08 14:00 47.59765 7.52766 892 ft 7 kts 311°
2026-04-08 14:00 47.59787 7.52667 889 ft 14 kts 321°
2026-04-08 14:01 47.59885 7.52595 887 ft 18 kts 336°
2026-04-08 14:01 47.60007 7.52510 886 ft 21 kts 334°
2026-04-08 14:01 47.60145 7.52412 886 ft 22 kts 334°
2026-04-08 14:01 47.60283 7.52316 885 ft 22 kts 336°
2026-04-08 14:02 47.60451 7.52203 885 ft 29 kts 336°
2026-04-08 14:02 47.60639 7.52070 885 ft 31 kts 333°
2026-04-08 14:02 47.61040 7.51793 884 ft 33 kts 335°
2026-04-08 14:03 47.61249 7.51649 884 ft 34 kts 334°
2026-04-08 14:03 47.61456 7.51505 884 ft 32 kts 336°
2026-04-08 14:03 47.61644 7.51370 884 ft 29 kts 334°
2026-04-08 14:03 47.61742 7.51302 885 ft 11 kts 335°
2026-04-08 14:04 47.61801 7.51230 884 ft 11 kts 298°
2026-04-08 14:04 47.61807 7.51201 884 ft 0 kts 280°
2026-04-08 14:06 47.61807 7.51164 884 ft 9 kts 266°
2026-04-08 14:06 47.61800 7.51122 883 ft 1 kts 248°
2026-04-08 14:06 47.61796 7.51107 883 ft 0 kts 248°
2026-04-08 14:06 47.61796 7.51106 883 ft 0 kts 248°
2026-04-08 14:10 47.61794 7.51101 882 ft 3 kts 248°
2026-04-08 14:10 47.61767 7.51014 880 ft 6 kts 222°
2026-04-08 14:10 47.61727 7.51018 879 ft 4 kts 155°
2026-04-08 14:12 47.61724 7.51019 879 ft 4 kts 155°
2026-04-08 14:12 47.61588 7.51115 878 ft 57 kts 154°
2026-04-08 14:12 47.60958 7.51551 879 ft 139 kts 154°
2026-04-08 14:13 47.59881 7.52311 1008 ft 197 kts 153°
2026-04-08 14:13 47.58591 7.53290 1809 ft 214 kts 149°
2026-04-08 14:13 47.57243 7.54262 2740 ft 220 kts 155°
2026-04-08 14:13 47.55863 7.55179 3497 ft 216 kts 155°
2026-04-08 14:14 47.54479 7.56094 4172 ft 222 kts 153°
2026-04-08 14:14 47.51580 7.58075 5518 ft 236 kts 152°
2026-04-08 14:14 47.50065 7.59125 6224 ft 246 kts 153°
2026-04-08 14:15 47.48455 7.60243 6719 ft 266 kts 153°
2026-04-08 14:15 47.46694 7.61300 7272 ft 280 kts 167°
2026-04-08 14:15 47.44738 7.61565 7982 ft 285 kts 176°
2026-04-08 14:15 47.42759 7.61724 8789 ft 286 kts 176°
2026-04-08 14:16 47.40766 7.61894 9636 ft 289 kts 176°
2026-04-08 14:16 47.38750 7.62078 10446 ft 292 kts 175°
2026-04-08 14:16 47.36719 7.62273 11244 ft 293 kts 176°
2026-04-08 14:16 47.34682 7.62475 12049 ft 294 kts 174°
2026-04-08 14:17 47.32727 7.63316 12710 ft 300 kts 147°
2026-04-08 14:17 47.31079 7.65297 13102 ft 313 kts 135°
2026-04-08 14:17 47.29468 7.67582 13498 ft 330 kts 135°
2026-04-08 14:17 47.27614 7.69716 13863 ft 347 kts 147°
2026-04-08 14:18 47.25470 7.71552 14152 ft 366 kts 149°
2026-04-08 14:18 47.23192 7.73417 14410 ft 383 kts 150°
2026-04-08 14:18 47.20836 7.75334 14975 ft 389 kts 150°
2026-04-08 14:18 47.18466 7.77277 15652 ft 392 kts 150°
2026-04-08 14:19 47.16086 7.79246 16354 ft 394 kts 150°
2026-04-08 14:19 47.13695 7.81239 17067 ft 396 kts 150°
2026-04-08 14:19 47.11301 7.83245 17777 ft 397 kts 149°
2026-04-08 14:19 47.08903 7.85262 18509 ft 398 kts 149°
2026-04-08 14:20 47.06498 7.87285 19168 ft 399 kts 149°
2026-04-08 14:20 47.04087 7.89311 19792 ft 401 kts 149°
2026-04-08 14:20 47.01642 7.91365 20223 ft 408 kts 149°
2026-04-08 14:20 46.99160 7.93449 20679 ft 414 kts 149°
2026-04-08 14:21 46.96642 7.95562 21141 ft 420 kts 150°
2026-04-08 14:21 46.94092 7.97697 21605 ft 425 kts 150°
2026-04-08 14:21 46.91514 7.99853 22086 ft 429 kts 150°
2026-04-08 14:21 46.88907 8.02030 22558 ft 433 kts 149°
2026-04-08 14:22 46.86280 8.04223 23043 ft 437 kts 150°
2026-04-08 14:22 46.83632 8.06430 23536 ft 440 kts 149°
2026-04-08 14:22 46.80968 8.08648 23953 ft 444 kts 150°
2026-04-08 14:22 46.78270 8.10891 24306 ft 448 kts 150°
2026-04-08 14:23 46.75556 8.13146 24661 ft 451 kts 150°
2026-04-08 14:23 46.72821 8.15416 25032 ft 454 kts 150°
2026-04-08 14:23 46.70072 8.17694 25393 ft 454 kts 150°
2026-04-08 14:23 46.67331 8.19962 25762 ft 453 kts 150°
2026-04-08 14:24 46.64591 8.22228 26124 ft 453 kts 150°
2026-04-08 14:24 46.61857 8.24485 26494 ft 452 kts 150°
2026-04-08 14:24 46.59125 8.26738 26861 ft 450 kts 150°
2026-04-08 14:24 46.56405 8.28979 27234 ft 449 kts 151°
2026-04-08 14:25 46.53699 8.31207 27637 ft 447 kts 151°
2026-04-08 14:25 46.50996 8.33428 28025 ft 445 kts 151°
2026-04-08 14:25 46.48312 8.35633 28412 ft 443 kts 151°
2026-04-08 14:25 46.45635 8.37829 28800 ft 441 kts 151°
2026-04-08 14:26 46.42962 8.40018 29047 ft 442 kts 151°
2026-04-08 14:26 46.40270 8.42219 29325 ft 446 kts 151°
2026-04-08 14:26 46.37553 8.44440 29620 ft 451 kts 152°
2026-04-08 14:26 46.34805 8.46684 29906 ft 455 kts 152°
2026-04-08 14:27 46.32034 8.48943 30178 ft 459 kts 152°
2026-04-08 14:27 46.29242 8.51218 30409 ft 462 kts 152°
2026-04-08 14:27 46.26429 8.53506 30652 ft 466 kts 152°
2026-04-08 14:27 46.23596 8.55808 30861 ft 468 kts 151°
2026-04-08 14:28 46.20756 8.58115 31123 ft 470 kts 151°
2026-04-08 14:28 46.17903 8.60429 31374 ft 471 kts 152°
2026-04-08 14:28 46.15040 8.62748 31610 ft 473 kts 151°
2026-04-08 14:28 46.12113 8.64930 31865 ft 474 kts 159°
2026-04-08 14:29 46.08995 8.66455 32115 ft 474 kts 167°
2026-04-08 14:29 46.05753 8.67288 32427 ft 473 kts 176°
2026-04-08 14:29 46.02518 8.67695 32702 ft 473 kts 177°
2026-04-08 14:29 45.99227 8.68053 32966 ft 474 kts 178°
2026-04-08 14:30 45.95935 8.68406 33231 ft 475 kts 178°
2026-04-08 14:30 45.92587 8.68781 33504 ft 476 kts 177°
2026-04-08 14:30 45.89324 8.69167 33759 ft 477 kts 177°
2026-04-08 14:30 45.86017 8.69572 34044 ft 477 kts 177°
2026-04-08 14:31 45.82709 8.69987 34280 ft 478 kts 177°
2026-04-08 14:31 45.79396 8.70405 34519 ft 478 kts 177°
2026-04-08 14:31 45.76091 8.70824 34747 ft 477 kts 177°
2026-04-08 14:31 45.72779 8.71242 34984 ft 477 kts 177°
2026-04-08 14:32 45.69471 8.71658 35141 ft 478 kts 177°
2026-04-08 14:32 45.62788 8.72494 35132 ft 483 kts 177°
2026-04-08 14:33 45.56175 8.73322 35120 ft 472 kts 177°
2026-04-08 14:33 45.49658 8.74134 35137 ft 470 kts 177°
2026-04-08 14:34 45.43138 8.74942 35129 ft 470 kts 177°
2026-04-08 14:34 45.36618 8.75751 35131 ft 471 kts 177°
2026-04-08 14:35 45.30091 8.76500 35139 ft 470 kts 178°
2026-04-08 14:35 45.24663 8.76982 35147 ft 470 kts 178°
2026-04-08 14:36 45.18642 8.77496 35154 ft 470 kts 178°
2026-04-08 14:36 45.12274 8.78060 35156 ft 469 kts 178°
2026-04-08 14:37 45.05758 8.78650 35156 ft 469 kts 178°
2026-04-08 14:37 44.99251 8.79240 35126 ft 468 kts 178°
2026-04-08 14:38 44.92756 8.79827 35137 ft 468 kts 178°
2026-04-08 14:38 44.86262 8.80412 35132 ft 467 kts 178°
2026-04-08 14:39 44.79770 8.80996 35139 ft 467 kts 178°
2026-04-08 14:39 44.73331 8.81283 35155 ft 466 kts 182°
2026-04-08 14:40 44.66850 8.81148 35164 ft 466 kts 183°
2026-04-08 14:40 44.60367 8.80999 35169 ft 466 kts 182°
2026-04-08 14:41 44.53885 8.80896 35176 ft 466 kts 182°
2026-04-08 14:41 44.47410 8.80818 35189 ft 466 kts 182°
2026-04-08 14:42 44.40928 8.80740 35188 ft 466 kts 182°
2026-04-08 14:42 44.34448 8.80660 35184 ft 466 kts 182°
2026-04-08 14:43 44.27966 8.80579 35177 ft 466 kts 182°
2026-04-08 14:43 44.21483 8.80499 35183 ft 466 kts 182°
2026-04-08 14:44 44.15027 8.81035 35176 ft 468 kts 166°
2026-04-08 14:44 44.11978 8.82613 35187 ft 469 kts 153°
2026-04-08 14:44 44.09233 8.85061 35180 ft 469 kts 140°
2026-04-08 14:45 44.04299 8.90997 35182 ft 470 kts 139°
2026-04-08 14:45 43.99308 8.96859 35177 ft 470 kts 140°
2026-04-08 14:45 43.96697 8.99575 35158 ft 469 kts 152°
2026-04-08 14:46 43.93684 9.01221 35195 ft 466 kts 168°
2026-04-08 14:46 43.90479 9.01725 35170 ft 463 kts 184°
2026-04-08 14:46 43.87295 9.01168 35201 ft 461 kts 191°
2026-04-08 14:47 43.80974 8.99614 35179 ft 462 kts 191°
2026-04-08 14:47 43.74634 8.98154 35150 ft 463 kts 190°
2026-04-08 14:47 43.71429 8.97454 34630 ft 467 kts 190°
2026-04-08 14:48 43.68235 8.96763 34161 ft 462 kts 190°
2026-04-08 14:48 43.65069 8.96079 33612 ft 459 kts 189°
2026-04-08 14:48 43.61903 8.95633 33068 ft 456 kts 182°
2026-04-08 14:48 43.58740 8.95621 32557 ft 453 kts 180°
2026-04-08 14:49 43.55592 8.95692 32041 ft 451 kts 179°
2026-04-08 14:49 43.52464 8.95759 31538 ft 448 kts 179°
2026-04-08 14:49 43.49358 8.95796 31031 ft 445 kts 180°
2026-04-08 14:49 43.46229 8.95807 30576 ft 457 kts 180°
2026-04-08 14:50 43.43051 8.95805 30089 ft 467 kts 180°
2026-04-08 14:50 43.39791 8.95786 29529 ft 469 kts 182°
2026-04-08 14:50 43.36599 8.95082 28929 ft 464 kts 198°
2026-04-08 14:50 43.33568 8.93667 28431 ft 458 kts 199°
2026-04-08 14:51 43.30569 8.92254 27890 ft 454 kts 199°
2026-04-08 14:51 43.27593 8.90870 27370 ft 450 kts 198°
2026-04-08 14:51 43.24635 8.89518 26857 ft 446 kts 198°
2026-04-08 14:51 43.21694 8.88193 26354 ft 443 kts 198°
2026-04-08 14:52 43.18773 8.86890 25861 ft 440 kts 198°
2026-04-08 14:52 43.15868 8.85601 25377 ft 437 kts 197°
2026-04-08 14:52 43.12981 8.84324 24900 ft 435 kts 197°
2026-04-08 14:52 43.10105 8.83054 24431 ft 433 kts 197°
2026-04-08 14:53 43.07248 8.81794 23971 ft 431 kts 197°
2026-04-08 14:53 43.04405 8.80540 23465 ft 428 kts 197°
2026-04-08 14:53 43.01577 8.79294 22924 ft 426 kts 197°
2026-04-08 14:53 42.98760 8.78054 22392 ft 424 kts 197°
2026-04-08 14:54 42.95962 8.76822 21868 ft 421 kts 197°
2026-04-08 14:54 42.93185 8.75601 21351 ft 418 kts 197°
2026-04-08 14:54 42.90422 8.74388 20859 ft 416 kts 198°
2026-04-08 14:54 42.87682 8.73185 20360 ft 413 kts 198°
2026-04-08 14:55 42.84956 8.71990 19871 ft 410 kts 198°
2026-04-08 14:55 42.82249 8.70804 19384 ft 407 kts 198°
2026-04-08 14:55 42.79600 8.69645 18916 ft 404 kts 198°
2026-04-08 14:55 42.76926 8.68476 18302 ft 404 kts 198°
2026-04-08 14:56 42.74311 8.67333 17403 ft 403 kts 198°
2026-04-08 14:56 42.73460 8.66966 17118 ft 403 kts 198°
2026-04-08 14:56 42.70802 8.65815 16401 ft 398 kts 198°
2026-04-08 14:56 42.68174 8.64667 15642 ft 395 kts 198°
2026-04-08 14:57 42.65564 8.63527 14848 ft 393 kts 198°
2026-04-08 14:57 42.62968 8.62394 14061 ft 391 kts 198°
2026-04-08 14:57 42.60379 8.61266 13215 ft 389 kts 198°
2026-04-08 14:57 42.57812 8.60149 12373 ft 387 kts 198°
2026-04-08 14:58 42.55255 8.59039 11546 ft 383 kts 198°
2026-04-08 14:58 42.52736 8.57946 10849 ft 376 kts 198°
2026-04-08 14:58 42.50284 8.56884 10391 ft 363 kts 198°
2026-04-08 14:58 42.47922 8.55862 9974 ft 350 kts 198°
2026-04-08 14:59 42.45640 8.54875 9525 ft 339 kts 198°
2026-04-08 14:59 42.43422 8.53916 9086 ft 330 kts 198°
2026-04-08 14:59 42.41265 8.52984 8649 ft 322 kts 198°
2026-04-08 14:59 42.39163 8.52077 8327 ft 311 kts 198°
2026-04-08 15:00 42.37140 8.51204 8070 ft 299 kts 198°
2026-04-08 15:00 42.35190 8.50363 7812 ft 289 kts 199°
2026-04-08 15:00 42.33289 8.49544 7578 ft 284 kts 199°
2026-04-08 15:00 42.31439 8.48747 7369 ft 274 kts 199°
2026-04-08 15:01 42.29650 8.47976 7113 ft 266 kts 199°
2026-04-08 15:01 42.27894 8.47220 6870 ft 264 kts 198°
2026-04-08 15:01 42.26150 8.46471 6625 ft 262 kts 198°
2026-04-08 15:01 42.24414 8.45725 6369 ft 261 kts 198°
2026-04-08 15:02 42.22681 8.45028 6226 ft 259 kts 191°
2026-04-08 15:02 42.20896 8.45228 6212 ft 263 kts 160°
2026-04-08 15:02 42.19248 8.46351 6207 ft 268 kts 150°
2026-04-08 15:02 42.17662 8.47610 6197 ft 268 kts 150°
2026-04-08 15:03 42.16043 8.48900 5872 ft 272 kts 148°
2026-04-08 15:03 42.14530 8.50401 5488 ft 268 kts 141°
2026-04-08 15:03 42.13129 8.52015 5117 ft 263 kts 140°
2026-04-08 15:03 42.11759 8.53615 4737 ft 259 kts 140°
2026-04-08 15:04 42.10401 8.55186 4350 ft 255 kts 140°
2026-04-08 15:04 42.09055 8.56726 3979 ft 253 kts 140°
2026-04-08 15:04 42.07709 8.58255 3680 ft 254 kts 141°
2026-04-08 15:04 42.06354 8.59784 3389 ft 255 kts 141°
2026-04-08 15:05 42.04989 8.61318 3099 ft 256 kts 141°
2026-04-08 15:05 42.03623 8.62850 3031 ft 257 kts 141°
2026-04-08 15:05 42.02260 8.64376 2993 ft 251 kts 141°
2026-04-08 15:05 42.01090 8.65943 2969 ft 225 kts 120°
2026-04-08 15:06 42.00593 8.67822 2884 ft 209 kts 102°
2026-04-08 15:06 42.00335 8.69675 2761 ft 196 kts 100°
2026-04-08 15:06 42.00114 8.71437 2741 ft 186 kts 99°
2026-04-08 15:06 41.99907 8.73107 2716 ft 178 kts 100°
2026-04-08 15:07 41.99702 8.74723 2679 ft 172 kts 100°
2026-04-08 15:07 41.99502 8.76299 2449 ft 171 kts 101°
2026-04-08 15:07 41.99296 8.77873 2182 ft 169 kts 102°
2026-04-08 15:07 41.99097 8.79416 1857 ft 166 kts 105°
2026-04-08 15:08 41.98873 8.80903 1784 ft 163 kts 109°
2026-04-08 15:08 41.98298 8.82174 1712 ft 161 kts 143°
2026-04-08 15:08 41.97364 8.82863 1694 ft 149 kts 173°
2026-04-08 15:08 41.96297 8.82717 1144 ft 163 kts 201°
2026-04-08 15:09 41.95306 8.82088 825 ft 151 kts 208°
2026-04-08 15:09 41.94368 8.81469 426 ft 153 kts 206°
2026-04-08 15:09 41.93434 8.80897 161 ft 141 kts 204°
2026-04-08 15:09 41.92580 8.80368 28 ft 127 kts 205°
2026-04-08 15:10 41.91973 8.79987 19 ft 65 kts 205°
2026-04-08 15:10 41.91633 8.79774 16 ft 51 kts 205°
2026-04-08 15:10 41.91347 8.79596 21 ft 33 kts 204°
2026-04-08 15:10 41.91249 8.79439 23 ft 23 kts 300°
2026-04-08 15:11 41.91388 8.79342 27 ft 23 kts 345°
2026-04-08 15:11 41.91535 8.79380 29 ft 22 kts 25°
2026-04-08 15:11 41.91672 8.79465 25 ft 21 kts 24°
2026-04-08 15:11 41.91803 8.79547 26 ft 20 kts 25°
2026-04-08 15:12 41.91894 8.79606 27 ft 11 kts 26°
2026-04-08 15:12 41.91944 8.79585 27 ft 8 kts 322°
2026-04-08 15:12 41.91961 8.79575 25 ft 0 kts 341°